Home > Weather > Namsos > Past weeks

Flag for Norway Past Weather in Namsos, Norway — Yesterday and Last 2 Weeks

Now
55 °F

Passing clouds.


Feels Like: 55 °F
Forecast: 49 / 70 °F
Wind: 3 mph from Northwest

Location: Namsos Lufthavn

Current Time: Jul 29, 2016 at 12:22:02 AM

Latest Report: Jul 28, 2016 at 9:50 PM


Visibility: N/A

Pressure: 29.77 "Hg

Humidity: 94%

Dew Point: 54 °F

Location of NamsosLocation

Past Weather in Namsos — Graph

°F

Namsos Temperature Yesterday

Maximum temperature yesterday: 66 °F (at 5:50 AM)
Minimum temperature yesterday: 55 °F (at 9:50 PM)
Average temperature yesterday: 62 °F

High & Low Weather Summary for the Past Weeks

 TemperatureHumidityPressure
High82 °F (Jul 21, 1:20 PM)100% (Jul 14, 8:20 AM)30.12 "Hg (Jul 14, 8:20 AM)
Low46 °F (Jul 19, 5:50 AM)35% (Jul 21, 5:20 PM)29.65 "Hg (Jul 28, 7:50 AM)
Average63 °F71%29.93 "Hg
* Reported Jul 13 9:20 PM — Jul 28 9:50 PM, Namsos, Weather by CustomWeather, © 2016

Note: Actual official high and low records may vary slightly from our data, if they occured in-between our weather recording intervals... More about our weather records

Advertising

Namsos Weather History for the Previous 24 Hours

Scroll right to see more
 ConditionsComfort  
Time TempWeatherWind HumidityBarometerVisibility
9:50 PM
Thu, Jul 28
55 °FPassing clouds.3 mph94%29.77 "HgN/A
9:20 PM57 °FPassing clouds.2 mph88%29.74 "HgN/A
8:50 PM59 °FScattered clouds.2 mph82%29.74 "HgN/A
8:20 PM57 °FBroken clouds.6 mph88%29.74 "HgN/A
7:50 PM57 °FBroken clouds.2 mph88%29.74 "HgN/A
7:20 PM57 °FScattered showers. Broken clouds.6 mph94%29.74 "HgN/A
6:50 PM57 °FScattered showers. Partly sunny.8 mph94%29.74 "HgN/A
6:20 PM57 °FScattered showers. Partly sunny.7 mph94%29.74 "HgN/A
5:20 PM57 °FRain showers. Partly sunny.6 mph94%29.74 "HgN/A
4:20 PM57 °FRain showers. Broken clouds.10 mph94%29.71 "HgN/A
3:50 PM59 °FRain showers. Broken clouds.3 mph94%29.71 "HgN/A
3:20 PM61 °FRain showers. Broken clouds.2 mph88%29.68 "HgN/A
2:50 PM63 °FSprinkles. Partly sunny.6 mph83%29.68 "HgN/A
2:20 PM64 °FScattered showers. Partly sunny.12 mph78%29.68 "HgN/A
1:50 PM66 °FPartly sunny.6 mph68%29.68 "HgN/A
1:20 PM66 °FPartly sunny.7 mph68%29.68 "HgN/A
12:50 PM66 °FBroken clouds.5 mph60%29.68 "HgN/A
12:20 PM66 °FBroken clouds.7 mph60%29.68 "HgN/A
11:50 AM66 °FBroken clouds.6 mph60%29.68 "HgN/A
11:20 AM66 °FPartly sunny.6 mph60%29.68 "HgN/A
10:50 AM66 °FPartly sunny.8 mph60%29.68 "HgN/A
10:20 AM66 °FPartly sunny.10 mph60%29.68 "HgN/A
9:50 AM66 °FSunny.10 mph60%29.68 "Hg10 mi
9:20 AM66 °FPassing clouds.10 mph60%29.65 "HgN/A
8:50 AM66 °FSunny.10 mph60%29.65 "Hg10 mi
8:20 AM64 °FPassing clouds.8 mph60%29.65 "HgN/A
7:50 AM64 °FSunny.6 mph60%29.65 "Hg10 mi
7:20 AM64 °FSunny.5 mph60%29.68 "Hg10 mi
6:50 AM64 °FPassing clouds.8 mph60%29.68 "HgN/A
6:20 AM66 °FPassing clouds.13 mph56%29.68 "HgN/A
5:50 AM66 °FPassing clouds.13 mph56%29.68 "HgN/A
Weather by CustomWeather, © 2016

See weather overviewHow to use our weather pages